Time,TemperatureF,DewpointF,PressureIn,WindDirection,WindDirectionDegrees,WindSpeedMPH,WindSpeedGustMPH,Humidity,HourlyPrecipIn,Conditions,Clouds,dailyrainin,SoftwareType,DateUTC
2013-10-15 00:01:00,45.0,40.1,29.63,SE,135,2.5,2.5,83,0.00,,,0.00,WUHU216HW,2013-10-15 05:01:00,
2013-10-15 00:06:00,45.0,40.1,29.63,ESE,113,2.0,2.5,83,0.00,,,0.00,WUHU216HW,2013-10-15 05:06:00,
2013-10-15 00:11:00,45.4,40.9,29.63,SSE,158,2.0,2.5,84,0.00,,,0.00,WUHU216HW,2013-10-15 05:11:00,
2013-10-15 00:16:00,45.4,40.9,29.63,ESE,113,1.8,2.0,84,0.00,,,0.00,WUHU216HW,2013-10-15 05:16:00,
2013-10-15 00:21:00,45.5,41.1,29.63,ESE,113,1.6,2.0,84,0.00,,,0.00,WUHU216HW,2013-10-15 05:21:00,
2013-10-15 00:26:00,45.5,40.7,29.63,SE,135,0.9,1.8,83,0.00,,,0.00,WUHU216HW,2013-10-15 05:26:00,
2013-10-15 00:31:00,45.5,40.7,29.62,SE,135,0.9,1.6,83,0.00,,,0.00,WUHU216HW,2013-10-15 05:31:00,
2013-10-15 00:36:00,45.5,40.7,29.63,SE,135,1.1,1.1,83,0.00,,,0.00,WUHU216HW,2013-10-15 05:36:00,
2013-10-15 00:41:00,45.5,40.7,29.62,ESE,113,2.2,2.2,83,0.00,,,0.00,WUHU216HW,2013-10-15 05:41:00,
2013-10-15 00:46:00,45.7,40.9,29.62,SE,135,2.2,2.2,83,0.00,,,0.00,WUHU216HW,2013-10-15 05:46:00,
2013-10-15 00:51:00,45.7,41.2,29.62,SE,135,2.9,2.9,84,0.00,,,0.00,WUHU216HW,2013-10-15 05:51:00,
2013-10-15 00:56:00,45.7,41.2,29.61,ESE,113,3.1,3.1,84,0.00,,,0.00,WUHU216HW,2013-10-15 05:56:00,
2013-10-15 01:01:00,45.9,41.4,29.61,SE,135,2.7,3.1,84,0.00,,,0.00,WUHU216HW,2013-10-15 06:01:00,
2013-10-15 01:06:00,46.1,41.9,29.61,SE,135,3.4,3.4,85,0.00,,,0.00,WUHU216HW,2013-10-15 06:06:00,
2013-10-15 01:11:00,46.1,41.9,29.61,SE,135,2.9,3.4,85,0.00,,,0.00,WUHU216HW,2013-10-15 06:11:00,
2013-10-15 01:16:00,46.3,42.0,29.61,ESE,113,3.1,3.4,85,0.00,,,0.00,WUHU216HW,2013-10-15 06:16:00,
2013-10-15 01:21:00,46.3,42.0,29.61,SE,135,1.8,3.4,85,0.00,,,0.00,WUHU216HW,2013-10-15 06:21:00,
2013-10-15 01:26:00,46.3,42.0,29.60,SE,135,4.0,4.0,85,0.00,,,0.00,WUHU216HW,2013-10-15 06:26:00,
2013-10-15 01:31:00,46.4,42.2,29.60,ESE,113,3.8,4.0,85,0.00,,,0.00,WUHU216HW,2013-10-15 06:31:00,
2013-10-15 01:36:00,46.4,42.2,29.59,ESE,113,3.4,4.0,85,0.00,,,0.00,WUHU216HW,2013-10-15 06:36:00,
2013-10-15 01:41:00,46.4,42.2,29.59,East,90,4.9,4.9,85,0.00,,,0.00,WUHU216HW,2013-10-15 06:41:00,
2013-10-15 01:46:00,46.4,42.2,29.58,SE,135,3.8,4.9,85,0.00,,,0.00,WUHU216HW,2013-10-15 06:46:00,
2013-10-15 01:51:00,46.4,42.2,29.58,SE,135,2.7,4.9,85,0.00,,,0.00,WUHU216HW,2013-10-15 06:51:00,
2013-10-15 01:56:00,46.4,42.2,29.58,East,90,3.4,4.0,85,0.00,,,0.00,WUHU216HW,2013-10-15 06:56:00,
2013-10-15 02:01:00,46.6,42.4,29.58,ESE,113,2.7,3.4,85,0.00,,,0.00,WUHU216HW,2013-10-15 07:01:00,
2013-10-15 02:06:00,46.8,42.6,29.59,SE,135,2.5,3.4,85,0.00,,,0.00,WUHU216HW,2013-10-15 07:06:00,
2013-10-15 02:11:00,46.8,42.6,29.58,SE,135,2.0,2.7,85,0.00,,,0.00,WUHU216HW,2013-10-15 07:11:00,
2013-10-15 02:16:00,46.8,42.6,29.58,ESE,113,1.1,2.5,85,0.00,,,0.00,WUHU216HW,2013-10-15 07:16:00,
2013-10-15 02:21:00,47.0,42.8,29.58,SE,135,2.0,2.0,85,0.00,,,0.00,WUHU216HW,2013-10-15 07:21:00,
2013-10-15 02:26:00,47.0,42.8,29.58,ESE,113,2.5,2.7,85,0.00,,,0.00,WUHU216HW,2013-10-15 07:26:00,
2013-10-15 02:31:00,47.2,42.9,29.58,ESE,113,1.8,2.7,85,0.00,,,0.00,WUHU216HW,2013-10-15 07:31:00,
2013-10-15 02:36:00,47.2,42.9,29.58,ESE,113,2.5,2.5,85,0.00,,,0.00,WUHU216HW,2013-10-15 07:36:00,
2013-10-15 02:41:00,47.2,42.9,29.57,SE,135,2.2,2.5,85,0.00,,,0.00,WUHU216HW,2013-10-15 07:41:00,
2013-10-15 02:46:00,47.2,42.9,29.57,SE,135,2.5,2.5,85,0.00,,,0.00,WUHU216HW,2013-10-15 07:46:00,
2013-10-15 02:51:00,47.3,43.0,29.57,SE,135,2.2,2.5,85,0.00,,,0.00,WUHU216HW,2013-10-15 07:51:00,
2013-10-15 02:56:00,47.5,43.2,29.56,SE,135,2.5,2.5,85,0.00,,,0.00,WUHU216HW,2013-10-15 07:56:00,
2013-10-15 03:01:00,47.5,43.2,29.56,ESE,113,2.0,2.5,85,0.00,,,0.00,WUHU216HW,2013-10-15 08:01:00,
2013-10-15 03:06:00,47.5,43.6,29.56,SE,135,1.8,2.5,86,0.00,,,0.00,WUHU216HW,2013-10-15 08:06:00,
2013-10-15 03:11:00,47.7,43.8,29.55,ESE,113,3.1,3.1,86,0.00,,,0.00,WUHU216HW,2013-10-15 08:11:00,
2013-10-15 03:16:00,47.7,43.8,29.54,ESE,113,2.5,3.1,86,0.00,,,0.00,WUHU216HW,2013-10-15 08:16:00,
2013-10-15 03:21:00,47.9,43.9,29.54,ESE,113,3.8,3.8,86,0.00,,,0.00,WUHU216HW,2013-10-15 08:21:00,
2013-10-15 03:26:00,47.9,43.9,29.54,SE,135,2.9,3.8,86,0.00,,,0.00,WUHU216HW,2013-10-15 08:26:00,
2013-10-15 03:31:00,48.1,44.1,29.54,ESE,113,2.2,3.8,86,0.00,,,0.00,WUHU216HW,2013-10-15 08:31:00,
2013-10-15 03:36:00,48.1,44.1,29.53,SE,135,3.4,3.4,86,0.00,,,0.00,WUHU216HW,2013-10-15 08:36:00,
2013-10-15 03:41:00,48.2,44.3,29.54,SE,135,2.5,3.4,86,0.00,,,0.00,WUHU216HW,2013-10-15 08:41:00,
2013-10-15 03:46:00,48.2,44.3,29.54,SE,135,1.8,3.4,86,0.00,,,0.00,WUHU216HW,2013-10-15 08:46:00,
2013-10-15 03:50:00,48.2,44.3,29.54,SE,135,1.8,2.5,86,0.00,,,0.00,WUHU216HW,2013-10-15 08:50:00,
2013-10-15 03:55:00,48.2,44.3,29.53,SE,135,2.2,2.2,86,0.00,,,0.00,WUHU216HW,2013-10-15 08:55:00,
2013-10-15 04:00:00,48.2,44.3,29.53,SE,135,1.3,2.2,86,0.00,,,0.00,WUHU216HW,2013-10-15 09:00:00,
2013-10-15 04:05:00,48.1,44.1,29.53,SE,135,2.0,2.2,86,0.00,,,0.00,WUHU216HW,2013-10-15 09:05:00,
2013-10-15 04:10:00,48.1,44.1,29.53,ESE,113,1.6,2.0,86,0.00,,,0.00,WUHU216HW,2013-10-15 09:10:00,
2013-10-15 04:15:00,48.1,44.1,29.53,ESE,113,1.8,2.0,86,0.00,,,0.00,WUHU216HW,2013-10-15 09:15:00,
2013-10-15 04:20:00,48.1,44.1,29.53,ESE,113,2.5,2.5,86,0.00,,,0.00,WUHU216HW,2013-10-15 09:20:00,
2013-10-15 04:25:00,48.1,44.1,29.52,ESE,113,2.0,2.5,86,0.00,,,0.00,WUHU216HW,2013-10-15 09:25:00,
2013-10-15 04:30:00,48.2,44.6,29.52,SE,135,2.2,2.5,87,0.00,,,0.00,WUHU216HW,2013-10-15 09:30:00,
2013-10-15 04:35:00,48.2,44.6,29.52,SE,135,2.0,2.2,87,0.00,,,0.00,WUHU216HW,2013-10-15 09:35:00,
2013-10-15 04:40:00,48.2,44.6,29.52,SE,135,2.7,2.7,87,0.00,,,0.00,WUHU216HW,2013-10-15 09:40:00,
2013-10-15 04:45:00,48.4,44.7,29.51,SE,135,2.5,2.7,87,0.00,,,0.00,WUHU216HW,2013-10-15 09:45:00,
2013-10-15 04:50:00,48.6,44.9,29.52,SE,135,3.1,3.1,87,0.00,,,0.00,WUHU216HW,2013-10-15 09:50:00,
2013-10-15 04:55:00,48.6,44.9,29.51,SE,135,3.1,3.1,87,0.00,,,0.00,WUHU216HW,2013-10-15 09:55:00,
2013-10-15 05:00:00,49.0,45.5,29.51,SE,135,4.0,4.0,88,0.00,,,0.00,WUHU216HW,2013-10-15 10:00:00,
2013-10-15 05:05:00,49.3,45.9,29.50,SE,135,3.4,4.0,88,0.00,,,0.00,WUHU216HW,2013-10-15 10:05:00,
2013-10-15 05:10:00,49.3,45.9,29.51,SE,135,3.4,4.0,88,0.00,,,0.00,WUHU216HW,2013-10-15 10:10:00,
2013-10-15 05:15:00,49.9,46.4,29.51,SE,135,4.0,4.3,88,0.00,,,0.00,WUHU216HW,2013-10-15 10:15:00,
2013-10-15 05:20:00,50.0,46.5,29.50,ESE,113,3.1,4.3,88,0.00,,,0.00,WUHU216HW,2013-10-15 10:20:00,
2013-10-15 05:25:00,50.2,46.7,29.50,SE,135,2.5,4.0,88,0.00,,,0.00,WUHU216HW,2013-10-15 10:25:00,
2013-10-15 05:30:00,50.4,46.9,29.50,SE,135,2.9,3.1,88,0.00,,,0.00,WUHU216HW,2013-10-15 10:30:00,
2013-10-15 05:35:00,50.6,47.1,29.50,SE,135,3.4,3.4,88,0.00,,,0.00,WUHU216HW,2013-10-15 10:35:00,
2013-10-15 05:40:00,50.8,47.3,29.50,ESE,113,3.1,3.4,88,0.00,,,0.00,WUHU216HW,2013-10-15 10:40:00,
2013-10-15 05:45:00,50.8,47.6,29.49,East,90,2.5,3.4,89,0.00,,,0.00,WUHU216HW,2013-10-15 10:45:00,
2013-10-15 05:50:00,50.8,47.6,29.49,ESE,113,3.4,3.4,89,0.00,,,0.00,WUHU216HW,2013-10-15 10:50:00,
2013-10-15 05:55:00,50.8,47.6,29.48,SE,135,3.1,3.4,89,0.00,,,0.00,WUHU216HW,2013-10-15 10:55:00,
2013-10-15 06:00:00,50.8,47.3,29.48,SE,135,3.1,3.4,88,0.00,,,0.00,WUHU216HW,2013-10-15 11:00:00,
2013-10-15 06:05:00,50.8,47.3,29.48,SE,135,2.9,3.1,88,0.00,,,0.00,WUHU216HW,2013-10-15 11:05:00,
2013-10-15 06:10:00,50.8,47.3,29.48,SE,135,2.7,3.1,88,0.00,,,0.00,WUHU216HW,2013-10-15 11:10:00,
2013-10-15 06:15:00,50.8,47.3,29.48,SE,135,2.7,2.9,88,0.00,,,0.00,WUHU216HW,2013-10-15 11:15:00,
2013-10-15 06:20:00,50.9,47.4,29.48,SE,135,2.5,2.7,88,0.00,,,0.00,WUHU216HW,2013-10-15 11:20:00,
2013-10-15 06:25:00,50.9,47.4,29.47,ESE,113,1.1,2.7,88,0.00,,,0.00,WUHU216HW,2013-10-15 11:25:00,
2013-10-15 06:30:00,50.9,47.4,29.47,SE,135,2.5,2.5,88,0.00,,,0.00,WUHU216HW,2013-10-15 11:30:00,
2013-10-15 06:35:00,50.9,47.4,29.47,SE,135,2.0,2.5,88,0.00,,,0.00,WUHU216HW,2013-10-15 11:35:00,
2013-10-15 06:40:00,50.9,47.4,29.47,SE,135,1.6,2.5,88,0.00,,,0.00,WUHU216HW,2013-10-15 11:40:00,
2013-10-15 06:45:00,50.9,47.4,29.47,SE,135,2.0,2.0,88,0.00,,,0.00,WUHU216HW,2013-10-15 11:45:00,
2013-10-15 06:50:00,50.9,47.8,29.46,SE,135,2.5,2.5,89,0.00,,,0.00,WUHU216HW,2013-10-15 11:50:00,
2013-10-15 06:55:00,50.9,47.8,29.46,ESE,113,3.8,3.8,89,0.00,,,0.00,WUHU216HW,2013-10-15 11:55:00,
2013-10-15 07:00:00,50.9,47.8,29.45,SE,135,2.5,3.8,89,0.01,,,0.01,WUHU216HW,2013-10-15 12:00:00,
2013-10-15 07:05:00,50.9,47.8,29.45,SE,135,1.6,3.8,89,0.01,,,0.01,WUHU216HW,2013-10-15 12:05:00,
2013-10-15 07:10:00,50.9,47.8,29.45,ESE,113,2.9,2.9,89,0.01,,,0.01,WUHU216HW,2013-10-15 12:10:00,
2013-10-15 07:15:00,50.9,47.8,29.44,SE,135,2.5,2.9,89,0.01,,,0.01,WUHU216HW,2013-10-15 12:15:00,
2013-10-15 07:20:00,50.9,47.8,29.44,ESE,113,3.4,3.4,89,0.01,,,0.01,WUHU216HW,2013-10-15 12:20:00,
2013-10-15 07:25:00,50.9,47.8,29.44,SE,135,2.5,3.4,89,0.01,,,0.01,WUHU216HW,2013-10-15 12:25:00,
2013-10-15 07:30:00,50.9,47.8,29.44,SE,135,3.8,4.3,89,0.01,,,0.01,WUHU216HW,2013-10-15 12:30:00,
2013-10-15 07:35:00,50.9,47.8,29.44,SE,135,3.4,4.3,89,0.01,,,0.01,WUHU216HW,2013-10-15 12:35:00,
2013-10-15 07:40:00,50.9,47.8,29.44,SE,135,2.5,3.8,89,0.01,,,0.01,WUHU216HW,2013-10-15 12:40:00,
2013-10-15 07:45:00,51.1,48.2,29.44,SE,135,3.4,3.4,90,0.01,,,0.01,WUHU216HW,2013-10-15 12:45:00,
2013-10-15 07:50:00,51.1,48.2,29.43,ESE,113,2.9,3.4,90,0.01,,,0.01,WUHU216HW,2013-10-15 12:50:00,
2013-10-15 07:55:00,51.1,48.0,29.43,ESE,113,3.6,3.6,89,0.00,,,0.01,WUHU216HW,2013-10-15 12:55:00,
2013-10-15 08:00:00,51.1,48.0,29.43,East,90,3.8,3.8,89,0.00,,,0.01,WUHU216HW,2013-10-15 13:00:00,
2013-10-15 08:05:00,51.3,48.2,29.43,SE,135,3.6,3.8,89,0.00,,,0.01,WUHU216HW,2013-10-15 13:05:00,
2013-10-15 08:10:00,51.5,48.3,29.43,ESE,113,4.7,4.7,89,0.00,,,0.01,WUHU216HW,2013-10-15 13:10:00,
2013-10-15 08:15:00,51.5,48.3,29.42,ESE,113,2.9,4.7,89,0.00,,,0.01,WUHU216HW,2013-10-15 13:15:00,
2013-10-15 08:20:00,51.5,48.3,29.42,ESE,113,3.8,4.7,89,0.00,,,0.01,WUHU216HW,2013-10-15 13:20:00,
2013-10-15 08:25:00,51.5,48.3,29.41,ESE,113,4.0,4.7,89,0.00,,,0.01,WUHU216HW,2013-10-15 13:25:00,
2013-10-15 08:30:00,51.5,48.3,29.42,SE,135,3.6,4.0,89,0.00,,,0.01,WUHU216HW,2013-10-15 13:30:00,
2013-10-15 08:35:00,51.7,48.5,29.41,SE,135,1.6,4.0,89,0.00,,,0.01,WUHU216HW,2013-10-15 13:35:00,
2013-10-15 08:40:00,51.7,48.5,29.41,SE,135,3.4,3.6,89,0.00,,,0.01,WUHU216HW,2013-10-15 13:40:00,
2013-10-15 08:45:00,51.8,49.0,29.41,SE,135,3.8,3.8,90,0.00,,,0.01,WUHU216HW,2013-10-15 13:45:00,
2013-10-15 08:50:00,52.0,49.1,29.41,SE,135,3.4,4.5,90,0.00,,,0.01,WUHU216HW,2013-10-15 13:50:00,
2013-10-15 08:55:00,52.0,49.1,29.41,SE,135,3.6,4.5,90,0.00,,,0.01,WUHU216HW,2013-10-15 13:55:00,
2013-10-15 09:00:00,52.0,49.1,29.41,South,180,2.9,3.6,90,0.00,,,0.01,WUHU216HW,2013-10-15 14:00:00,
2013-10-15 09:05:00,52.2,49.3,29.41,SE,135,4.0,4.0,90,0.01,,,0.02,WUHU216HW,2013-10-15 14:05:00,
2013-10-15 09:10:00,52.0,49.1,29.40,SSE,158,2.9,4.0,90,0.01,,,0.02,WUHU216HW,2013-10-15 14:10:00,
2013-10-15 09:15:00,52.0,49.1,29.40,SSE,158,3.6,4.0,90,0.01,,,0.02,WUHU216HW,2013-10-15 14:15:00,
2013-10-15 09:20:00,51.8,49.0,29.40,SE,135,4.5,4.5,90,0.03,,,0.04,WUHU216HW,2013-10-15 14:20:00,
2013-10-15 09:25:00,51.8,49.0,29.40,SE,135,4.7,4.7,90,0.03,,,0.04,WUHU216HW,2013-10-15 14:25:00,
2013-10-15 09:30:00,51.8,49.0,29.40,SE,135,4.0,4.7,90,0.04,,,0.05,WUHU216HW,2013-10-15 14:30:00,
2013-10-15 09:35:00,51.7,48.8,29.40,South,180,3.4,4.7,90,0.05,,,0.06,WUHU216HW,2013-10-15 14:35:00,
2013-10-15 09:40:00,51.7,48.8,29.40,SW,225,4.0,4.0,90,0.05,,,0.06,WUHU216HW,2013-10-15 14:40:00,
2013-10-15 09:45:00,51.7,48.8,29.40,SE,135,2.5,4.0,90,0.06,,,0.07,WUHU216HW,2013-10-15 14:45:00,
2013-10-15 09:50:00,51.7,48.8,29.40,South,180,2.9,4.0,90,0.08,,,0.09,WUHU216HW,2013-10-15 14:50:00,
2013-10-15 09:55:00,51.5,48.6,29.39,SSW,203,3.4,3.4,90,0.08,,,0.09,WUHU216HW,2013-10-15 14:55:00,
2013-10-15 10:00:00,51.5,48.6,29.39,South,180,3.4,3.4,90,0.08,,,0.09,WUHU216HW,2013-10-15 15:00:00,
2013-10-15 10:05:00,51.5,48.9,29.39,SSE,158,3.1,3.4,91,0.07,,,0.09,WUHU216HW,2013-10-15 15:05:00,
2013-10-15 10:10:00,51.5,48.9,29.39,SE,135,3.6,3.6,91,0.08,,,0.10,WUHU216HW,2013-10-15 15:10:00,
2013-10-15 10:15:00,51.5,48.9,29.38,SE,135,2.9,3.6,91,0.07,,,0.10,WUHU216HW,2013-10-15 15:15:00,
2013-10-15 10:20:00,51.5,48.9,29.38,SE,135,3.6,3.6,91,0.06,,,0.10,WUHU216HW,2013-10-15 15:20:00,
2013-10-15 10:25:00,51.7,49.1,29.38,SSE,158,2.0,3.6,91,0.06,,,0.11,WUHU216HW,2013-10-15 15:25:00,
2013-10-15 10:30:00,51.7,49.1,29.38,SE,135,3.4,3.6,91,0.06,,,0.12,WUHU216HW,2013-10-15 15:30:00,
2013-10-15 10:35:00,51.5,48.9,29.37,SE,135,3.4,3.4,91,0.08,,,0.14,WUHU216HW,2013-10-15 15:35:00,
2013-10-15 10:40:00,51.5,48.9,29.37,SE,135,3.6,3.6,91,0.10,,,0.17,WUHU216HW,2013-10-15 15:40:00,
2013-10-15 10:45:00,51.5,48.9,29.36,SE,135,4.0,4.0,91,0.13,,,0.21,WUHU216HW,2013-10-15 15:45:00,
2013-10-15 10:50:00,51.5,48.9,29.36,SSE,158,3.4,4.0,91,0.13,,,0.22,WUHU216HW,2013-10-15 15:50:00,
2013-10-15 10:55:00,51.5,48.9,29.36,SSE,158,3.4,4.0,91,0.15,,,0.24,WUHU216HW,2013-10-15 15:55:00,
2013-10-15 11:00:00,51.5,48.9,29.36,SSE,158,3.4,5.4,91,0.17,,,0.26,WUHU216HW,2013-10-15 16:00:00,
2013-10-15 11:05:00,51.5,48.9,29.35,SSE,158,4.7,5.4,91,0.19,,,0.29,WUHU216HW,2013-10-15 16:05:00,
2013-10-15 11:10:00,51.5,49.1,29.35,SE,135,4.3,4.7,92,0.18,,,0.29,WUHU216HW,2013-10-15 16:10:00,
2013-10-15 11:15:00,51.7,49.3,29.35,SSW,203,2.5,4.7,92,0.20,,,0.31,WUHU216HW,2013-10-15 16:15:00,
2013-10-15 11:20:00,51.7,49.3,29.35,ESE,113,4.3,4.3,92,0.19,,,0.31,WUHU216HW,2013-10-15 16:20:00,
2013-10-15 11:25:00,51.7,49.3,29.34,SE,135,3.4,4.3,92,0.18,,,0.31,WUHU216HW,2013-10-15 16:25:00,
2013-10-15 11:30:00,51.8,49.5,29.34,South,180,3.4,4.3,92,0.20,,,0.33,WUHU216HW,2013-10-15 16:30:00,
2013-10-15 11:35:00,52.0,49.7,29.34,SE,135,3.8,3.8,92,0.18,,,0.33,WUHU216HW,2013-10-15 16:35:00,
2013-10-15 11:40:00,52.2,49.9,29.33,SE,135,3.4,3.8,92,0.13,,,0.33,WUHU216HW,2013-10-15 16:40:00,
2013-10-15 11:45:00,52.4,50.4,29.33,SSW,203,4.5,4.5,93,0.11,,,0.33,WUHU216HW,2013-10-15 16:45:00,
2013-10-15 11:50:00,52.4,50.4,29.33,SSE,158,3.8,4.5,93,0.10,,,0.33,WUHU216HW,2013-10-15 16:50:00,
2013-10-15 11:55:00,52.4,50.4,29.33,SW,225,6.3,6.3,93,0.08,,,0.33,WUHU216HW,2013-10-15 16:55:00,
2013-10-15 12:00:00,52.4,50.4,29.32,SE,135,3.4,6.3,93,0.06,,,0.33,WUHU216HW,2013-10-15 17:00:00,
2013-10-15 12:05:00,52.6,50.6,29.32,ESE,113,3.1,6.3,93,0.04,,,0.33,WUHU216HW,2013-10-15 17:05:00,
2013-10-15 12:10:00,52.6,50.6,29.32,SSW,203,4.7,4.7,93,0.04,,,0.33,WUHU216HW,2013-10-15 17:10:00,
2013-10-15 12:15:00,52.7,50.8,29.32,SSW,203,2.9,4.7,93,0.02,,,0.33,WUHU216HW,2013-10-15 17:15:00,
2013-10-15 12:20:00,52.7,50.8,29.32,SSW,203,4.3,4.7,93,0.02,,,0.33,WUHU216HW,2013-10-15 17:20:00,
2013-10-15 12:25:00,52.9,51.2,29.32,SSW,203,3.4,4.3,94,0.01,,,0.33,WUHU216HW,2013-10-15 17:25:00,
2013-10-15 12:30:00,52.9,51.5,29.32,SSW,203,4.0,4.5,95,0.00,,,0.33,WUHU216HW,2013-10-15 17:30:00,
2013-10-15 12:35:00,52.9,51.5,29.32,SSW,203,4.7,4.7,95,0.00,,,0.33,WUHU216HW,2013-10-15 17:35:00,
2013-10-15 12:40:00,52.9,51.5,29.31,South,180,4.3,4.7,95,0.00,,,0.33,WUHU216HW,2013-10-15 17:40:00,
2013-10-15 12:45:00,53.1,51.7,29.31,SW,225,4.7,5.4,95,0.00,,,0.33,WUHU216HW,2013-10-15 17:45:00,
2013-10-15 12:50:00,53.1,51.7,29.31,SSW,203,8.5,8.5,95,0.00,,,0.33,WUHU216HW,2013-10-15 17:50:00,
2013-10-15 12:55:00,53.3,51.8,29.30,SSW,203,4.3,8.5,95,0.00,,,0.33,WUHU216HW,2013-10-15 17:55:00,
2013-10-15 13:00:00,53.3,51.8,29.30,SW,225,5.4,8.5,95,0.00,,,0.33,WUHU216HW,2013-10-15 18:00:00,
2013-10-15 13:05:00,53.3,51.8,29.30,SSW,203,7.2,7.2,95,0.00,,,0.33,WUHU216HW,2013-10-15 18:05:00,
2013-10-15 13:10:00,53.5,52.0,29.30,SSW,203,4.9,7.2,95,0.00,,,0.33,WUHU216HW,2013-10-15 18:10:00,
2013-10-15 13:15:00,53.5,52.0,29.29,SW,225,6.3,7.2,95,0.00,,,0.33,WUHU216HW,2013-10-15 18:15:00,
2013-10-15 13:20:00,53.6,52.2,29.29,South,180,6.9,6.9,95,0.00,,,0.33,WUHU216HW,2013-10-15 18:20:00,
2013-10-15 13:25:00,53.6,52.2,29.28,SSW,203,2.9,6.9,95,0.00,,,0.33,WUHU216HW,2013-10-15 18:25:00,
2013-10-15 13:30:00,53.8,52.4,29.28,SSW,203,3.1,8.1,95,0.00,,,0.33,WUHU216HW,2013-10-15 18:30:00,
2013-10-15 13:35:00,54.0,52.6,29.28,SSW,203,4.5,8.1,95,0.00,,,0.33,WUHU216HW,2013-10-15 18:35:00,
2013-10-15 13:40:00,54.2,52.7,29.28,SSE,158,4.7,4.7,95,0.00,,,0.33,WUHU216HW,2013-10-15 18:40:00,
2013-10-15 13:45:00,54.2,53.0,29.27,SSW,203,6.9,6.9,96,0.00,,,0.33,WUHU216HW,2013-10-15 18:45:00,
2013-10-15 13:50:00,54.4,52.9,29.27,SSE,158,5.1,6.9,95,0.00,,,0.33,WUHU216HW,2013-10-15 18:50:00,
2013-10-15 13:55:00,54.4,52.9,29.27,SW,225,8.3,8.3,95,0.00,,,0.33,WUHU216HW,2013-10-15 18:55:00,
2013-10-15 14:00:00,54.4,53.2,29.27,SSW,203,4.3,8.3,96,0.00,,,0.33,WUHU216HW,2013-10-15 19:00:00,
2013-10-15 14:05:00,54.4,53.2,29.27,SW,225,4.7,8.3,96,0.00,,,0.33,WUHU216HW,2013-10-15 19:05:00,
2013-10-15 14:10:00,54.4,52.9,29.26,SW,225,5.1,6.3,95,0.00,,,0.33,WUHU216HW,2013-10-15 19:10:00,
2013-10-15 14:15:00,54.5,53.4,29.26,SSW,203,6.5,6.5,96,0.00,,,0.33,WUHU216HW,2013-10-15 19:15:00,
2013-10-15 14:20:00,54.5,53.4,29.26,SSW,203,6.9,6.9,96,0.00,,,0.33,WUHU216HW,2013-10-15 19:20:00,
2013-10-15 14:25:00,54.5,53.4,29.26,SSW,203,5.4,6.9,96,0.00,,,0.33,WUHU216HW,2013-10-15 19:25:00,
2013-10-15 14:30:00,54.5,53.4,29.26,SSE,158,6.3,6.9,96,0.00,,,0.33,WUHU216HW,2013-10-15 19:30:00,
2013-10-15 14:35:00,54.5,53.4,29.26,SSW,203,3.4,6.3,96,0.00,,,0.33,WUHU216HW,2013-10-15 19:35:00,
2013-10-15 14:40:00,54.7,53.6,29.26,SSW,203,11.0,11.0,96,0.00,,,0.33,WUHU216HW,2013-10-15 19:40:00,
2013-10-15 14:45:00,54.7,53.6,29.25,SSW,203,6.0,11.0,96,0.00,,,0.33,WUHU216HW,2013-10-15 19:45:00,
2013-10-15 14:50:00,54.7,53.6,29.25,SSW,203,3.6,11.0,96,0.00,,,0.33,WUHU216HW,2013-10-15 19:50:00,
2013-10-15 14:55:00,54.9,53.7,29.25,SSW,203,4.5,6.0,96,0.00,,,0.33,WUHU216HW,2013-10-15 19:55:00,
2013-10-15 15:00:00,55.1,53.9,29.25,SW,225,5.8,5.8,96,0.00,,,0.33,WUHU216HW,2013-10-15 20:00:00,
2013-10-15 15:05:00,54.9,53.7,29.25,SW,225,4.7,5.8,96,0.00,,,0.33,WUHU216HW,2013-10-15 20:05:00,
2013-10-15 15:10:00,55.1,53.9,29.25,SSW,203,6.3,6.3,96,0.00,,,0.33,WUHU216HW,2013-10-15 20:10:00,
2013-10-15 15:15:00,55.1,53.9,29.25,SW,225,5.1,6.3,96,0.00,,,0.33,WUHU216HW,2013-10-15 20:15:00,
2013-10-15 15:20:00,55.1,53.9,29.24,SSW,203,5.6,6.3,96,0.00,,,0.33,WUHU216HW,2013-10-15 20:20:00,
2013-10-15 15:25:00,55.3,54.1,29.24,South,180,3.4,5.6,96,0.00,,,0.33,WUHU216HW,2013-10-15 20:25:00,
2013-10-15 15:30:00,55.4,54.3,29.25,SW,225,5.1,5.6,96,0.00,,,0.33,WUHU216HW,2013-10-15 20:30:00,
2013-10-15 15:35:00,55.4,54.3,29.25,SSW,203,4.0,5.1,96,0.00,,,0.33,WUHU216HW,2013-10-15 20:35:00,
2013-10-15 15:40:00,55.4,54.3,29.25,SW,225,4.7,5.1,96,0.01,,,0.33,WUHU216HW,2013-10-15 20:40:00,
2013-10-15 15:45:00,55.4,54.3,29.25,SSW,203,3.1,4.7,96,0.01,,,0.33,WUHU216HW,2013-10-15 20:45:00,
2013-10-15 15:50:00,55.6,54.5,29.25,SSW,203,2.9,4.7,96,0.01,,,0.33,WUHU216HW,2013-10-15 20:50:00,
2013-10-15 15:55:00,55.6,54.5,29.25,SSW,203,3.1,3.4,96,0.01,,,0.33,WUHU216HW,2013-10-15 20:55:00,
2013-10-15 16:00:00,55.6,54.5,29.25,SSW,203,1.8,3.1,96,0.01,,,0.33,WUHU216HW,2013-10-15 21:00:00,
2013-10-15 16:05:00,55.6,54.5,29.25,SW,225,3.8,3.8,96,0.01,,,0.33,WUHU216HW,2013-10-15 21:05:00,
2013-10-15 16:10:00,55.8,54.6,29.24,SSW,203,4.7,4.7,96,0.01,,,0.33,WUHU216HW,2013-10-15 21:10:00,
2013-10-15 16:15:00,55.8,54.6,29.24,SW,225,2.5,4.7,96,0.01,,,0.33,WUHU216HW,2013-10-15 21:15:00,
2013-10-15 16:20:00,55.8,54.6,29.24,SSW,203,2.7,4.7,96,0.01,,,0.33,WUHU216HW,2013-10-15 21:20:00,
2013-10-15 16:25:00,55.8,54.6,29.24,SSW,203,4.5,4.5,96,0.01,,,0.33,WUHU216HW,2013-10-15 21:25:00,
2013-10-15 16:30:00,55.8,54.6,29.24,SSW,203,3.4,4.5,96,0.01,,,0.33,WUHU216HW,2013-10-15 21:30:00,
2013-10-15 16:35:00,56.0,54.8,29.24,South,180,2.5,4.5,96,0.01,,,0.33,WUHU216HW,2013-10-15 21:35:00,
2013-10-15 16:40:00,56.0,54.8,29.24,SSW,203,2.2,3.4,96,0.00,,,0.33,WUHU216HW,2013-10-15 21:40:00,
2013-10-15 16:45:00,56.0,54.8,29.24,SSW,203,3.1,3.1,96,0.00,,,0.33,WUHU216HW,2013-10-15 21:45:00,
2013-10-15 16:50:00,56.2,55.0,29.24,SSW,203,2.9,3.1,96,0.00,,,0.33,WUHU216HW,2013-10-15 21:50:00,
2013-10-15 16:55:00,56.2,55.0,29.23,SSW,203,2.5,3.1,96,0.00,,,0.33,WUHU216HW,2013-10-15 21:55:00,
2013-10-15 17:00:00,56.2,55.0,29.23,SSW,203,0.7,2.9,96,0.00,,,0.33,WUHU216HW,2013-10-15 22:00:00,
2013-10-15 17:05:00,56.3,55.2,29.23,SSW,203,1.3,1.3,96,0.00,,,0.33,WUHU216HW,2013-10-15 22:05:00,
2013-10-15 17:10:00,56.3,55.2,29.23,SSW,203,2.0,2.0,96,0.00,,,0.33,WUHU216HW,2013-10-15 22:10:00,
2013-10-15 17:15:00,56.3,54.9,29.23,SW,225,1.1,2.0,95,0.00,,,0.33,WUHU216HW,2013-10-15 22:15:00,
2013-10-15 17:20:00,56.3,55.2,29.23,SSW,203,2.2,2.2,96,0.00,,,0.33,WUHU216HW,2013-10-15 22:20:00,
2013-10-15 17:25:00,56.3,55.2,29.23,SSW,203,6.0,6.0,96,0.00,,,0.33,WUHU216HW,2013-10-15 22:25:00,
2013-10-15 17:30:00,56.3,55.2,29.23,South,180,4.7,6.0,96,0.00,,,0.33,WUHU216HW,2013-10-15 22:30:00,
2013-10-15 17:35:00,56.5,55.4,29.23,WSW,248,2.0,6.0,96,0.00,,,0.33,WUHU216HW,2013-10-15 22:35:00,
2013-10-15 17:40:00,56.5,55.1,29.23,SSW,203,5.1,5.1,95,0.00,,,0.33,WUHU216HW,2013-10-15 22:40:00,
2013-10-15 17:45:00,56.5,55.1,29.23,SW,225,2.5,5.1,95,0.00,,,0.33,WUHU216HW,2013-10-15 22:45:00,
2013-10-15 17:50:00,56.5,55.1,29.24,SSW,203,1.8,5.1,95,0.00,,,0.33,WUHU216HW,2013-10-15 22:50:00,
2013-10-15 17:55:00,56.3,54.4,29.24,SSW,203,4.5,4.5,93,0.00,,,0.33,WUHU216HW,2013-10-15 22:55:00,
2013-10-15 18:00:00,55.6,52.7,29.24,SW,225,6.3,6.3,90,0.00,,,0.33,WUHU216HW,2013-10-15 23:00:00,
2013-10-15 18:05:00,55.3,52.0,29.24,SSW,203,1.1,6.3,89,0.00,,,0.33,WUHU216HW,2013-10-15 23:05:00,
2013-10-15 18:10:00,55.3,52.0,29.24,WSW,248,2.7,6.3,89,0.00,,,0.33,WUHU216HW,2013-10-15 23:10:00,
2013-10-15 18:15:00,54.7,51.8,29.24,SSW,203,4.0,4.0,90,0.00,,,0.33,WUHU216HW,2013-10-15 23:15:00,
2013-10-15 18:20:00,54.5,51.7,29.24,SSW,203,1.8,4.0,90,0.00,,,0.33,WUHU216HW,2013-10-15 23:20:00,
2013-10-15 18:25:00,54.4,51.2,29.24,SW,225,4.9,4.9,89,0.00,,,0.33,WUHU216HW,2013-10-15 23:25:00,
2013-10-15 18:30:00,54.0,50.5,29.24,SSW,203,3.1,4.9,88,0.00,,,0.33,WUHU216HW,2013-10-15 23:30:00,
2013-10-15 18:35:00,54.0,50.5,29.25,WSW,248,2.5,4.9,88,0.00,,,0.33,WUHU216HW,2013-10-15 23:35:00,
2013-10-15 18:40:00,54.0,50.2,29.25,SSW,203,2.5,4.0,87,0.00,,,0.33,WUHU216HW,2013-10-15 23:40:00,
2013-10-15 18:45:00,54.0,50.5,29.25,West,270,3.4,3.4,88,0.00,,,0.33,WUHU216HW,2013-10-15 23:45:00,
2013-10-15 18:50:00,54.0,50.5,29.25,WSW,248,1.8,3.4,88,0.00,,,0.33,WUHU216HW,2013-10-15 23:50:00,
2013-10-15 18:55:00,53.8,50.3,29.25,SSW,203,1.3,3.6,88,0.00,,,0.33,WUHU216HW,2013-10-15 23:55:00,
2013-10-15 19:00:00,53.8,50.7,29.25,WSW,248,1.6,3.6,89,0.00,,,0.33,WUHU216HW,2013-10-16 00:00:00,
2013-10-15 19:05:00,53.6,50.5,29.25,SW,225,4.0,4.0,89,0.00,,,0.33,WUHU216HW,2013-10-16 00:05:00,
2013-10-15 19:10:00,53.8,50.7,29.26,WSW,248,3.4,4.0,89,0.00,,,0.33,WUHU216HW,2013-10-16 00:10:00,
2013-10-15 19:15:00,53.6,49.5,29.26,SW,225,2.5,4.7,86,0.00,,,0.33,WUHU216HW,2013-10-16 00:15:00,
2013-10-15 19:20:00,53.5,48.8,29.26,WSW,248,6.7,6.7,84,0.00,,,0.33,WUHU216HW,2013-10-16 00:20:00,
2013-10-15 19:25:00,53.1,48.4,29.26,WSW,248,4.7,6.7,84,0.00,,,0.33,WUHU216HW,2013-10-16 00:25:00,
2013-10-15 19:30:00,52.6,47.5,29.27,WSW,248,5.4,6.7,83,0.00,,,0.33,WUHU216HW,2013-10-16 00:30:00,
2013-10-15 19:35:00,52.2,46.9,29.27,SSW,203,4.7,6.0,82,0.00,,,0.33,WUHU216HW,2013-10-16 00:35:00,
2013-10-15 19:40:00,51.8,46.5,29.27,WSW,248,4.7,5.4,82,0.00,,,0.33,WUHU216HW,2013-10-16 00:40:00,
2013-10-15 19:45:00,51.5,46.2,29.27,WSW,248,3.6,4.7,82,0.00,,,0.33,WUHU216HW,2013-10-16 00:45:00,
2013-10-15 19:50:00,51.3,46.3,29.27,WSW,248,6.0,6.0,83,0.00,,,0.33,WUHU216HW,2013-10-16 00:50:00,
2013-10-15 19:55:00,51.1,46.5,29.28,WSW,248,6.3,6.3,84,0.00,,,0.33,WUHU216HW,2013-10-16 00:55:00,
2013-10-15 20:00:00,50.9,46.3,29.28,NW,315,2.9,6.3,84,0.00,,,0.33,WUHU216HW,2013-10-16 01:00:00,
2013-10-15 20:05:00,50.9,46.3,29.28,West,270,2.9,6.3,84,0.00,,,0.33,WUHU216HW,2013-10-16 01:05:00,
2013-10-15 20:10:00,50.8,46.1,29.28,West,270,3.8,4.3,84,0.00,,,0.33,WUHU216HW,2013-10-16 01:10:00,
2013-10-15 20:15:00,50.8,46.1,29.28,SW,225,5.4,5.4,84,0.00,,,0.33,WUHU216HW,2013-10-16 01:15:00,
2013-10-15 20:20:00,50.4,45.7,29.29,WSW,248,2.2,5.4,84,0.00,,,0.33,WUHU216HW,2013-10-16 01:20:00,
2013-10-15 20:25:00,50.2,46.1,29.29,SW,225,0.7,5.4,86,0.00,,,0.33,WUHU216HW,2013-10-16 01:25:00,
2013-10-15 20:30:00,50.0,45.9,29.29,WSW,248,2.5,3.1,86,0.00,,,0.33,WUHU216HW,2013-10-16 01:30:00,
2013-10-15 20:35:00,50.0,45.9,29.29,West,270,1.8,2.5,86,0.00,,,0.33,WUHU216HW,2013-10-16 01:35:00,
2013-10-15 20:40:00,50.0,45.9,29.29,SSW,203,3.4,3.4,86,0.00,,,0.33,WUHU216HW,2013-10-16 01:40:00,
2013-10-15 20:45:00,49.9,45.8,29.29,SSW,203,2.7,3.4,86,0.00,,,0.33,WUHU216HW,2013-10-16 01:45:00,
2013-10-15 20:50:00,49.9,45.5,29.29,SSW,203,2.7,3.4,85,0.00,,,0.33,WUHU216HW,2013-10-16 01:50:00,
2013-10-15 20:56:00,49.7,45.3,29.29,WSW,248,4.0,4.0,85,0.00,,,0.33,WUHU216HW,2013-10-16 01:56:00,
2013-10-15 21:01:00,49.7,45.3,29.29,SSW,203,1.8,4.0,85,0.00,,,0.33,WUHU216HW,2013-10-16 02:01:00,
2013-10-15 21:06:00,49.7,45.3,29.29,WSW,248,2.9,4.0,85,0.00,,,0.33,WUHU216HW,2013-10-16 02:06:00,
2013-10-15 21:10:00,49.7,45.0,29.29,WSW,248,3.1,3.1,84,0.00,,,0.33,WUHU216HW,2013-10-16 02:10:00,
2013-10-15 21:15:00,49.7,45.0,29.29,SW,225,1.3,4.0,84,0.00,,,0.33,WUHU216HW,2013-10-16 02:15:00,
2013-10-15 21:20:00,49.7,45.0,29.29,SW,225,2.0,4.0,84,0.00,,,0.33,WUHU216HW,2013-10-16 02:20:00,
2013-10-15 21:25:00,49.5,44.8,29.29,SW,225,1.8,2.0,84,0.00,,,0.33,WUHU216HW,2013-10-16 02:25:00,
2013-10-15 21:30:00,49.5,44.8,29.29,SSW,203,2.5,2.5,84,0.00,,,0.33,WUHU216HW,2013-10-16 02:30:00,
2013-10-15 21:35:00,49.3,44.7,29.28,SW,225,2.2,2.5,84,0.00,,,0.33,WUHU216HW,2013-10-16 02:35:00,
2013-10-15 21:40:00,49.3,44.7,29.28,SW,225,1.6,2.5,84,0.00,,,0.33,WUHU216HW,2013-10-16 02:40:00,
2013-10-15 21:45:00,49.3,44.9,29.28,WSW,248,2.2,2.2,85,0.00,,,0.33,WUHU216HW,2013-10-16 02:45:00,
2013-10-15 21:50:00,49.1,44.8,29.28,WSW,248,1.8,2.2,85,0.00,,,0.33,WUHU216HW,2013-10-16 02:50:00,
2013-10-15 21:55:00,49.1,44.8,29.28,SW,225,1.1,2.2,85,0.00,,,0.33,WUHU216HW,2013-10-16 02:55:00,
2013-10-15 22:00:00,49.1,44.8,29.28,SW,225,1.6,1.8,85,0.00,,,0.33,WUHU216HW,2013-10-16 03:00:00,
2013-10-15 22:05:00,49.1,44.8,29.28,SSW,203,2.5,2.5,85,0.00,,,0.33,WUHU216HW,2013-10-16 03:05:00,
2013-10-15 22:10:00,49.1,44.8,29.29,SSW,203,1.1,4.3,85,0.00,,,0.33,WUHU216HW,2013-10-16 03:10:00,
2013-10-15 22:15:00,49.1,44.8,29.28,SW,225,3.1,4.3,85,0.00,,,0.33,WUHU216HW,2013-10-16 03:15:00,
2013-10-15 22:20:00,49.1,44.8,29.29,SW,225,2.2,3.1,85,0.00,,,0.33,WUHU216HW,2013-10-16 03:20:00,
2013-10-15 22:25:00,49.1,44.8,29.28,SW,225,1.8,3.1,85,0.00,,,0.33,WUHU216HW,2013-10-16 03:25:00,
2013-10-15 22:30:00,49.0,44.7,29.28,SW,225,3.4,3.4,85,0.00,,,0.33,WUHU216HW,2013-10-16 03:30:00,
2013-10-15 22:35:00,49.0,44.9,29.28,WSW,248,1.8,3.4,86,0.00,,,0.33,WUHU216HW,2013-10-16 03:35:00,
2013-10-15 22:40:00,49.0,44.9,29.28,WSW,248,1.8,3.4,86,0.00,,,0.33,WUHU216HW,2013-10-16 03:40:00,
2013-10-15 22:45:00,49.0,44.9,29.28,SW,225,2.9,2.9,86,0.00,,,0.33,WUHU216HW,2013-10-16 03:45:00,
2013-10-15 22:50:00,49.0,44.7,29.28,WSW,248,1.1,2.9,85,0.00,,,0.33,WUHU216HW,2013-10-16 03:50:00,
2013-10-15 22:55:00,49.0,44.3,29.27,SW,225,3.6,3.6,84,0.00,,,0.33,WUHU216HW,2013-10-16 03:55:00,
2013-10-15 23:00:00,49.1,44.1,29.27,SW,225,4.0,4.0,83,0.00,,,0.33,WUHU216HW,2013-10-16 04:00:00,
2013-10-15 23:01:00,49.1,44.1,29.27,SW,225,4.0,4.0,83,0.00,,,0.33,WUHU216HW,2013-10-16 04:01:00,
2013-10-15 23:02:00,49.1,44.1,29.27,SW,225,4.0,4.0,83,0.00,,,0.33,WUHU216HW,2013-10-16 04:02:00,
2013-10-15 23:07:00,49.0,44.0,29.27,West,270,4.5,4.5,83,0.00,,,0.33,WUHU216HW,2013-10-16 04:07:00,
2013-10-15 23:12:00,49.0,44.0,29.27,West,270,4.0,4.5,83,0.00,,,0.33,WUHU216HW,2013-10-16 04:12:00,
2013-10-15 23:17:00,49.0,44.0,29.27,WSW,248,1.8,4.5,83,0.00,,,0.33,WUHU216HW,2013-10-16 04:17:00,
2013-10-15 23:22:00,49.0,44.3,29.27,SW,225,3.1,4.0,84,0.00,,,0.33,WUHU216HW,2013-10-16 04:22:00,
2013-10-15 23:27:00,49.0,44.0,29.27,WSW,248,4.9,4.9,83,0.00,,,0.33,WUHU216HW,2013-10-16 04:27:00,
2013-10-15 23:32:00,49.0,44.0,29.27,SW,225,3.1,4.9,83,0.00,,,0.33,WUHU216HW,2013-10-16 04:32:00,
2013-10-15 23:37:00,49.0,44.0,29.27,SW,225,5.1,5.1,83,0.00,,,0.33,WUHU216HW,2013-10-16 04:37:00,
2013-10-15 23:42:00,48.8,43.8,29.27,WSW,248,1.8,5.1,83,0.00,,,0.33,WUHU216HW,2013-10-16 04:42:00,
2013-10-15 23:47:00,48.6,43.9,29.27,WSW,248,2.5,5.1,84,0.00,,,0.33,WUHU216HW,2013-10-16 04:47:00,
2013-10-15 23:52:00,48.6,43.9,29.27,WSW,248,2.0,2.5,84,0.00,,,0.33,WUHU216HW,2013-10-16 04:52:00,
2013-10-15 23:57:00,48.6,44.3,29.27,WSW,248,4.0,4.0,85,0.00,,,0.33,WUHU216HW,2013-10-16 04:57:00,